When you browse on this site, cookies collect data to enhance your experience and personalize the content and advertising you see.
Visit our Privacy Policy to learn more. By continuing to use the site, you agree to this use of cookies and data.
  • In Latvia
  • List of Countries
  • For 7 days
  • Water Temperature
  • Satellite Maps
  • Weather Map
  • Weather Widgets
  • user-avatar
    Login

    Hourly Weather Barisal

    Today, 23 April, Tuesday

    Time Temperature Precipitation Wind Pressure Humidity
    00:00 +30°C° 0 mm 2 mps 755 mmHg 56%
    01:00 +29°C° 0 mm 1 mps 755 mmHg 58%
    02:00 +29°C° 0 mm 1 mps 754 mmHg 59%
    03:00 +26°C° 0 mm 0 mps 754 mmHg 61%
    04:00 +26°C° 0 mm 0 mps 754 mmHg 61%
    05:00 +26°C° 0 mm 0 mps 755 mmHg 61%
    06:00 +29°C° 0 mm 1 mps 755 mmHg 56%
    07:00 +31°C° 0 mm 1 mps 755 mmHg 49%
    08:00 +33°C° 0 mm 1 mps 756 mmHg 42%
    09:00 +35°C° 0 mm 1 mps 756 mmHg 35%
    10:00 +36°C° 0 mm 1 mps 756 mmHg 31%
    11:00 +39°C° 0 mm 1 mps 756 mmHg 27%
    12:00 +40°C° 0 mm 2 mps 756 mmHg 25%
    13:00 +40°C° 0 mm 2 mps 756 mmHg 24%
    14:00 +40°C° 0 mm 2 mps 755 mmHg 24%
    15:00 +41°C° 0 mm 2 mps 754 mmHg 23%
    16:00 +40°C° 0 mm 2 mps 754 mmHg 25%
    17:00 +38°C° 0 mm 3 mps 754 mmHg 28%
    18:00 +37°C° 0 mm 4 mps 754 mmHg 31%
    19:00 +36°C° 0 mm 3 mps 754 mmHg 35%
    20:00 +35°C° 0 mm 3 mps 755 mmHg 38%
    21:00 +34°C° 0 mm 3 mps 755 mmHg 42%
    22:00 +33°C° 0 mm 3 mps 755 mmHg 46%
    23:00 +31°C° 0 mm 3 mps 756 mmHg 51%

    Tomorrow, 24 April, Wednesday

    Time Temperature Precipitation Wind Pressure Humidity
    00:00 +31°C° 0 mm 3 mps 756 mmHg 55%
    01:00 +30°C° 0 mm 2 mps 756 mmHg 57%
    02:00 +30°C° 0 mm 1 mps 755 mmHg 59%
    03:00 +30°C° 0 mm 1 mps 755 mmHg 61%
    04:00 +30°C° 0 mm 1 mps 755 mmHg 61%
    05:00 +30°C° 0 mm 1 mps 755 mmHg 61%
    06:00 +29°C° 0 mm 1 mps 756 mmHg 61%
    07:00 +32°C° 0 mm 1 mps 756 mmHg 54%
    08:00 +34°C° 0 mm 1 mps 757 mmHg 46%
    09:00 +34°C° 0 mm 0 mps 757 mmHg 39%
    10:00 +39°C° 0 mm 1 mps 757 mmHg 35%
    11:00 +40°C° 0 mm 1 mps 757 mmHg 30%
    12:00 +42°C° 0 mm 1 mps 757 mmHg 25%
    13:00 +42°C° 0 mm 2 mps 756 mmHg 25%
    14:00 +42°C° 0 mm 2 mps 755 mmHg 24%
    15:00 +43°C° 0 mm 3 mps 754 mmHg 24%
    16:00 +42°C° 0 mm 4 mps 754 mmHg 28%
    17:00 +40°C° 0 mm 4 mps 754 mmHg 32%
    18:00 +39°C° 0 mm 5 mps 753 mmHg 36%
    19:00 +36°C° 0 mm 5 mps 754 mmHg 41%
    20:00 +35°C° 0 mm 4 mps 754 mmHg 45%
    21:00 +34°C° 0 mm 4 mps 755 mmHg 50%
    22:00 +33°C° 0 mm 3 mps 755 mmHg 54%
    23:00 +33°C° 0 mm 3 mps 755 mmHg 58%

    Day after tomorrow, 25 April, Thursday

    Time Temperature Precipitation Wind Pressure Humidity
    00:00 +31°C° 0 mm 3 mps 755 mmHg 61%
    01:00 +31°C° 0 mm 2 mps 755 mmHg 63%
    02:00 +31°C° 0 mm 2 mps 754 mmHg 64%
    03:00 +30°C° 0 mm 2 mps 754 mmHg 65%
    04:00 +30°C° 0 mm 2 mps 754 mmHg 67%
    05:00 +30°C° 0 mm 1 mps 755 mmHg 68%
    06:00 +29°C° 0 mm 1 mps 755 mmHg 69%
    07:00 +31°C° 0 mm 1 mps 756 mmHg 60%
    08:00 +34°C° 0 mm 1 mps 756 mmHg 51%
    09:00 +36°C° 0 mm 1 mps 757 mmHg 41%
    10:00 +38°C° 0 mm 2 mps 757 mmHg 36%
    11:00 +40°C° 0 mm 2 mps 756 mmHg 31%
    12:00 +43°C° 0 mm 3 mps 756 mmHg 26%
    13:00 +42°C° 0 mm 3 mps 755 mmHg 26%
    14:00 +42°C° 0 mm 4 mps 754 mmHg 26%
    15:00 +42°C° 0 mm 4 mps 753 mmHg 26%
    16:00 +41°C° 0 mm 4 mps 753 mmHg 27%
    17:00 +40°C° 0 mm 5 mps 753 mmHg 29%
    18:00 +39°C° 0 mm 5 mps 753 mmHg 30%
    19:00 +37°C° 0 mm 5 mps 753 mmHg 38%
    20:00 +35°C° 0 mm 4 mps 754 mmHg 46%
    21:00 +33°C° 0 mm 4 mps 754 mmHg 54%
    22:00 +33°C° 0 mm 4 mps 754 mmHg 57%
    23:00 +31°C° 0 mm 3 mps 754 mmHg 60%

    26 April, Friday

    Time Temperature Precipitation Wind Pressure Humidity
    00:00 +31°C° 0 mm 3 mps 754 mmHg 64%
    01:00 +30°C° 0 mm 3 mps 753 mmHg 66%
    02:00 +30°C° 0 mm 3 mps 753 mmHg 68%
    03:00 +29°C° 0 mm 3 mps 753 mmHg 69%
    04:00 +29°C° 0 mm 3 mps 753 mmHg 72%
    05:00 +29°C° 0 mm 2 mps 753 mmHg 74%
    06:00 +29°C° 0 mm 2 mps 753 mmHg 76%
    07:00 +31°C° 0 mm 2 mps 754 mmHg 64%
    08:00 +35°C° 0 mm 2 mps 755 mmHg 51%
    09:00 +38°C° 0 mm 3 mps 755 mmHg 38%
    10:00 +39°C° 0 mm 3 mps 755 mmHg 32%
    11:00 +42°C° 0 mm 4 mps 755 mmHg 27%
    12:00 +45°C° 0 mm 5 mps 754 mmHg 21%
    13:00 +45°C° 0 mm 5 mps 753 mmHg 22%
    14:00 +44°C° 0 mm 6 mps 753 mmHg 22%
    15:00 +44°C° 0 mm 6 mps 752 mmHg 23%
    16:00 +41°C° 0 mm 6 mps 752 mmHg 29%
    17:00 +39°C° 0 mm 6 mps 752 mmHg 35%
    18:00 +38°C° 0 mm 6 mps 752 mmHg 41%
    19:00 +35°C° 0 mm 5 mps 753 mmHg 50%
    20:00 +34°C° 0 mm 4 mps 753 mmHg 59%
    21:00 +32°C° 0 mm 4 mps 754 mmHg 68%
    22:00 +32°C° 0 mm 4 mps 754 mmHg 70%
    23:00 +31°C° 0 mm 3 mps 753 mmHg 73%

    27 April, Saturday

    Time Temperature Precipitation Wind Pressure Humidity
    00:00 +30°C° 0 mm 3 mps 753 mmHg 75%
    01:00 +30°C° 0 mm 3 mps 753 mmHg 77%
    02:00 +30°C° 0 mm 3 mps 753 mmHg 78%
    03:00 +30°C° 0 mm 3 mps 753 mmHg 79%
    04:00 +29°C° 0 mm 3 mps 753 mmHg 80%
    05:00 +29°C° 0 mm 2 mps 753 mmHg 82%
    06:00 +29°C° 0 mm 2 mps 754 mmHg 83%
    07:00 +31°C° 0 mm 3 mps 754 mmHg 72%
    08:00 +35°C° 0 mm 3 mps 755 mmHg 62%
    09:00 +37°C° 0 mm 4 mps 755 mmHg 51%
    10:00 +38°C° 0 mm 4 mps 755 mmHg 46%
    11:00 +41°C° 0 mm 4 mps 754 mmHg 41%
    12:00 +42°C° 0 mm 5 mps 754 mmHg 37%
    13:00 +41°C° 0 mm 5 mps 753 mmHg 39%
    14:00 +41°C° 0 mm 6 mps 752 mmHg 41%
    15:00 +41°C° 0 mm 7 mps 752 mmHg 43%
    16:00 +39°C° 1 mm 6 mps 752 mmHg 52%
    17:00 +36°C° 1 mm 5 mps 752 mmHg 60%
    18:00 +34°C° 1 mm 5 mps 752 mmHg 68%
    19:00 +33°C° 0.2 mm 5 mps 752 mmHg 71%
    20:00 +33°C° 0.2 mm 6 mps 753 mmHg 73%
    21:00 +32°C° 0.2 mm 6 mps 753 mmHg 75%
    22:00 +32°C° 0 mm 6 mps 753 mmHg 77%
    23:00 +32°C° 0 mm 5 mps 753 mmHg 78%

    28 April, Sunday

    Time Temperature Precipitation Wind Pressure Humidity
    00:00 +32°C° 0 mm 5 mps 753 mmHg 80%
    01:00 +30°C° 0 mm 5 mps 753 mmHg 81%
    02:00 +30°C° 0 mm 5 mps 753 mmHg 82%
    03:00 +30°C° 0 mm 5 mps 752 mmHg 83%
    04:00 +30°C° 0 mm 4 mps 753 mmHg 83%
    05:00 +30°C° 0 mm 4 mps 753 mmHg 84%
    06:00 +30°C° 0 mm 4 mps 753 mmHg 84%
    07:00 +33°C° 0 mm 4 mps 754 mmHg 74%
    08:00 +35°C° 0 mm 5 mps 754 mmHg 65%
    09:00 +36°C° 0 mm 6 mps 755 mmHg 55%
    10:00 +39°C° 0 mm 6 mps 754 mmHg 51%
    11:00 +40°C° 0 mm 7 mps 754 mmHg 47%
    12:00 +41°C° 0 mm 7 mps 754 mmHg 42%
    13:00 +40°C° 0 mm 8 mps 753 mmHg 44%
    14:00 +40°C° 0 mm 8 mps 752 mmHg 45%
    15:00 +40°C° 0 mm 8 mps 752 mmHg 47%
    16:00 +38°C° 0 mm 7 mps 752 mmHg 52%
    17:00 +36°C° 0 mm 7 mps 752 mmHg 58%
    18:00 +34°C° 0 mm 7 mps 752 mmHg 64%
    19:00 +34°C° 0 mm 6 mps 752 mmHg 68%
    20:00 +33°C° 0 mm 6 mps 753 mmHg 72%
    21:00 +32°C° 0 mm 6 mps 753 mmHg 76%
    22:00 +32°C° 0 mm 6 mps 753 mmHg 77%
    23:00 +32°C° 0 mm 6 mps 753 mmHg 77%
    Show more